NOAA 16 DEB, 41080

Orbit data source: Space-Track

NOAA 16 DEB, 41080 is space debris in SSO originally from a launch on Thu, 21 Sep 2000 UTC launched from the Air Force Western Test Range (AFWTR). Debris objects in space refer to the collection of defunct objects orbiting the Earth. Examples of debris include non-operational satellites, rocket bodies, and fragments generated from explosions, collisions, or faulty payload assembly.

Loading next visibility...
Identifier
41080, 2000-055AP
Orbit
SSO
Country
Flag of USUS
Related business
Manufacturer
Unknown
Mission
Spacecraft
Bus & Motor
Unknown
Mass
Unknown
Launch date (UTC)
2000-09-21 (25 years ago)
Launch vehicle
Unknown
Launch site
Air Force Western Test Range (AFWTR)
Object type
Payload
Rocket body
Debris
Shape & HBR
Unknown
Radar Cross Section
Small (<0.1 m²)

Expand to show TLE details & history
Last TLE update: 15 hours ago

TLE from 15 hours ago
0 NOAA 16 DEB
1 41080U 00055AP  25260.07889220  .00001652  00000-0  76453-3 0  9996
2 41080  98.5530 306.1556 0006155 326.6376  33.4413 14.22161700506048
Epoch: 2025-09-17T01:53Z
TLE epoch observation values (Epoch: 2025-09-17T01:53:36.286Z)
Latitude
-0.00006°
Longitude
-78.50558°
Altitude
817.278 km
Speed
7.446 km/s
True Right ascension
20h 24m 37s
True Declination
0° 00' 00"
Sunlit
Object was in full shadow at epoch
Visualization orbit readout
Latitude
Unknown
Longitude
Unknown
Altitude
Unknown
Speed
Unknown
Apparent Right ascension
Unknown
Apparent Declination
Unknown
Sunlit
N/A
Visualization observer readout
Local Sidereal Time
09:51:59
Azimuth
Unknown
Elevation
Unknown
Doppler factor
Unknown
Orbital elements
Apogee altitude
819.627 km
Perigee altitude
810.772 km
Semi-major axis
7,193.337 km
Eccentricity
0.00062
Inclination
98.553°
RAAN
306.1556°
Arg. of periapsis
326.6376°
True anomaly
33.48019°
Mean anomaly
33.4413°
Eccentric anomaly
33.46074°
Mean motion
3.55752 °/min
Orbital period
101.19 mins
BSTAR
0.00076453
Loading maneuver chart data...
Computing Atmospheric mass density...
Loading historical data...
Loading historical data...
Loading historical data...
Loading historical data...
Loading historical data...
Loading historical data...
Loading historical data...

Documentation

Showing up to 5 results
|